When you browse on this site, cookies collect data to enhance your experience and personalize the content and advertising you see.
Visit our Privacy Policy to learn more. By continuing to use the site, you agree to this use of cookies and data.
  • In Österreich
  • Länderverzeichnis
  • Für 7 Tage
  • Wassertemperatur
  • Wetterkarte
  • News
  • Widgets
  • user-avatar
    Anmelden

    Stündliche Wetter Mosquera

    Heute, 21 November, Donnerstag

    Zeit Temperatur Niederschläge Wind Luftdruck Luftfeuchtigkeit
    00:00 +10°C° 0.1 mm 0 m/S 560 mmHg 93%
    01:00 +10°C° 0.1 mm 0 m/S 560 mmHg 92%
    02:00 +10°C° 0.1 mm 0 m/S 560 mmHg 92%
    03:00 +10°C° 0.1 mm 0 m/S 560 mmHg 92%
    04:00 +10°C° 0.1 mm 1 m/S 560 mmHg 92%
    05:00 +10°C° 0 mm 0 m/S 560 mmHg 90%
    06:00 +11°C° 0 mm 0 m/S 561 mmHg 89%
    07:00 +11°C° 0 mm 0 m/S 561 mmHg 87%
    08:00 +14°C° 0.1 mm 1 m/S 562 mmHg 82%
    09:00 +16°C° 0.1 mm 1 m/S 563 mmHg 77%
    10:00 +18°C° 0.1 mm 1 m/S 564 mmHg 72%
    11:00 +17°C° 0.7 mm 2 m/S 563 mmHg 76%
    12:00 +17°C° 0.7 mm 2 m/S 562 mmHg 79%
    13:00 +17°C° 0.7 mm 2 m/S 561 mmHg 83%
    14:00 +16°C° 0.7 mm 2 m/S 561 mmHg 83%
    15:00 +16°C° 0.7 mm 2 m/S 561 mmHg 83%
    16:00 +16°C° 0.7 mm 2 m/S 560 mmHg 83%
    17:00 +15°C° 0.4 mm 1 m/S 560 mmHg 86%
    18:00 +13°C° 0.4 mm 1 m/S 560 mmHg 88%
    19:00 +12°C° 0.4 mm 1 m/S 559 mmHg 91%
    20:00 +12°C° 0.1 mm 1 m/S 560 mmHg 90%
    21:00 +12°C° 0.1 mm 1 m/S 560 mmHg 90%
    22:00 +11°C° 0.1 mm 1 m/S 560 mmHg 89%
    23:00 +11°C° 0 mm 1 m/S 560 mmHg 89%

    Morgen, 22 November, Freitag

    Zeit Temperatur Niederschläge Wind Luftdruck Luftfeuchtigkeit
    00:00 +11°C° 0 mm 1 m/S 560 mmHg 88%
    01:00 +11°C° 0 mm 1 m/S 559 mmHg 88%
    02:00 +11°C° 0 mm 1 m/S 559 mmHg 88%
    03:00 +10°C° 0 mm 1 m/S 559 mmHg 89%
    04:00 +10°C° 0 mm 1 m/S 558 mmHg 89%
    05:00 +11°C° 0 mm 1 m/S 559 mmHg 87%
    06:00 +12°C° 0 mm 1 m/S 560 mmHg 85%
    07:00 +12°C° 0 mm 0 m/S 561 mmHg 83%
    08:00 +14°C° 0 mm 1 m/S 562 mmHg 77%
    09:00 +16°C° 0 mm 1 m/S 563 mmHg 71%
    10:00 +18°C° 0 mm 2 m/S 564 mmHg 65%
    11:00 +18°C° 0.8 mm 2 m/S 563 mmHg 71%
    12:00 +17°C° 0.8 mm 2 m/S 562 mmHg 78%
    13:00 +17°C° 0.8 mm 2 m/S 561 mmHg 84%
    14:00 +16°C° 1.2 mm 2 m/S 561 mmHg 85%
    15:00 +16°C° 1.2 mm 1 m/S 560 mmHg 87%
    16:00 +16°C° 1.2 mm 1 m/S 559 mmHg 88%
    17:00 +14°C° 0.5 mm 1 m/S 559 mmHg 89%
    18:00 +13°C° 0.5 mm 1 m/S 559 mmHg 90%
    19:00 +12°C° 0.5 mm 1 m/S 559 mmHg 91%
    20:00 +12°C° 0.1 mm 1 m/S 559 mmHg 90%
    21:00 +12°C° 0.1 mm 1 m/S 560 mmHg 89%
    22:00 +12°C° 0.1 mm 1 m/S 560 mmHg 88%
    23:00 +12°C° 0.1 mm 1 m/S 560 mmHg 89%

    übermorgen, 23 November, Samstag

    Zeit Temperatur Niederschläge Wind Luftdruck Luftfeuchtigkeit
    00:00 +11°C° 0.1 mm 1 m/S 559 mmHg 89%
    01:00 +11°C° 0.1 mm 1 m/S 559 mmHg 90%
    02:00 +11°C° 0 mm 1 m/S 559 mmHg 90%
    03:00 +10°C° 0 mm 1 m/S 559 mmHg 91%
    04:00 +10°C° 0 mm 1 m/S 558 mmHg 92%
    05:00 +11°C° 0 mm 1 m/S 559 mmHg 90%
    06:00 +12°C° 0 mm 1 m/S 560 mmHg 88%
    07:00 +12°C° 0 mm 1 m/S 561 mmHg 86%
    08:00 +14°C° 0 mm 1 m/S 562 mmHg 80%
    09:00 +16°C° 0 mm 1 m/S 563 mmHg 74%
    10:00 +18°C° 0 mm 2 m/S 564 mmHg 67%
    11:00 +17°C° 0.8 mm 2 m/S 563 mmHg 73%
    12:00 +17°C° 0.8 mm 2 m/S 562 mmHg 79%
    13:00 +17°C° 0.8 mm 2 m/S 561 mmHg 85%
    14:00 +16°C° 1.1 mm 2 m/S 561 mmHg 86%
    15:00 +16°C° 1.1 mm 1 m/S 560 mmHg 88%
    16:00 +15°C° 1.1 mm 1 m/S 560 mmHg 90%
    17:00 +14°C° 1.1 mm 1 m/S 560 mmHg 91%
    18:00 +13°C° 1.1 mm 1 m/S 560 mmHg 92%
    19:00 +11°C° 1.1 mm 0 m/S 560 mmHg 93%
    20:00 +12°C° 0.4 mm 1 m/S 560 mmHg 92%
    21:00 +12°C° 0.4 mm 1 m/S 560 mmHg 91%
    22:00 +12°C° 0.4 mm 1 m/S 561 mmHg 90%
    23:00 +12°C° 0.1 mm 1 m/S 560 mmHg 90%

    24 November, Sonntag

    Zeit Temperatur Niederschläge Wind Luftdruck Luftfeuchtigkeit
    00:00 +12°C° 0.1 mm 1 m/S 560 mmHg 90%
    01:00 +12°C° 0.1 mm 1 m/S 560 mmHg 89%
    02:00 +12°C° 0 mm 1 m/S 559 mmHg 90%
    03:00 +10°C° 0 mm 0 m/S 559 mmHg 90%
    04:00 +10°C° 0 mm 0 m/S 559 mmHg 90%
    05:00 +10°C° 0 mm 0 m/S 559 mmHg 89%
    06:00 +11°C° 0 mm 0 m/S 560 mmHg 87%
    07:00 +12°C° 0 mm 0 m/S 561 mmHg 85%
    08:00 +13°C° 0 mm 0 m/S 562 mmHg 79%
    09:00 +16°C° 0 mm 1 m/S 563 mmHg 74%
    10:00 +19°C° 0 mm 1 m/S 564 mmHg 69%
    11:00 +19°C° 0.6 mm 1 m/S 563 mmHg 73%
    12:00 +18°C° 0.6 mm 1 m/S 562 mmHg 77%
    13:00 +17°C° 0.6 mm 2 m/S 561 mmHg 81%
    14:00 +18°C° 1.3 mm 1 m/S 560 mmHg 84%
    15:00 +16°C° 1.3 mm 1 m/S 560 mmHg 87%
    16:00 +16°C° 1.3 mm 1 m/S 559 mmHg 90%
    17:00 +15°C° 1.1 mm 1 m/S 559 mmHg 91%
    18:00 +14°C° 1.1 mm 1 m/S 560 mmHg 93%
    19:00 +13°C° 1.1 mm 1 m/S 560 mmHg 94%
    20:00 +13°C° 1 mm 1 m/S 560 mmHg 93%
    21:00 +12°C° 1 mm 0 m/S 560 mmHg 93%
    22:00 +12°C° 1 mm 0 m/S 561 mmHg 92%
    23:00 +11°C° 0.2 mm 0 m/S 560 mmHg 92%

    25 November, Montag

    Zeit Temperatur Niederschläge Wind Luftdruck Luftfeuchtigkeit
    00:00 +11°C° 0.2 mm 0 m/S 560 mmHg 91%
    01:00 +10°C° 0.2 mm 0 m/S 559 mmHg 91%
    02:00 +10°C° 0 mm 0 m/S 559 mmHg 91%
    03:00 +10°C° 0 mm 0 m/S 558 mmHg 90%
    04:00 +9°C° 0 mm 0 m/S 558 mmHg 90%
    05:00 +10°C° 0 mm 0 m/S 559 mmHg 88%
    06:00 +11°C° 0 mm 0 m/S 560 mmHg 87%
    07:00 +12°C° 0 mm 0 m/S 560 mmHg 85%
    08:00 +15°C° 0 mm 1 m/S 561 mmHg 78%
    09:00 +18°C° 0 mm 1 m/S 562 mmHg 71%
    10:00 +20°C° 0 mm 1 m/S 563 mmHg 64%
    11:00 +19°C° 0.4 mm 1 m/S 562 mmHg 68%
    12:00 +19°C° 0.4 mm 1 m/S 561 mmHg 72%
    13:00 +18°C° 0.4 mm 2 m/S 560 mmHg 76%
    14:00 +18°C° 0.7 mm 1 m/S 560 mmHg 80%
    15:00 +18°C° 0.7 mm 1 m/S 559 mmHg 83%
    16:00 +16°C° 0.7 mm 1 m/S 558 mmHg 87%
    17:00 +15°C° 0.7 mm 1 m/S 558 mmHg 89%
    18:00 +14°C° 0.7 mm 1 m/S 558 mmHg 91%
    19:00 +13°C° 0.7 mm 1 m/S 559 mmHg 93%
    20:00 +13°C° 0.7 mm 1 m/S 559 mmHg 92%
    21:00 +12°C° 0.7 mm 1 m/S 559 mmHg 91%
    22:00 +12°C° 0.7 mm 1 m/S 559 mmHg 90%
    23:00 +12°C° 0.2 mm 1 m/S 559 mmHg 89%

    26 November, Dienstag

    Zeit Temperatur Niederschläge Wind Luftdruck Luftfeuchtigkeit
    00:00 +12°C° 0.2 mm 1 m/S 559 mmHg 89%
    01:00 +12°C° 0.2 mm 1 m/S 558 mmHg 88%
    02:00 +12°C° 0.1 mm 1 m/S 558 mmHg 88%
    03:00 +12°C° 0.1 mm 1 m/S 558 mmHg 88%
    04:00 +12°C° 0.1 mm 1 m/S 558 mmHg 88%
    05:00 +12°C° 0 mm 1 m/S 559 mmHg 87%
    06:00 +13°C° 0 mm 1 m/S 560 mmHg 87%
    07:00 +13°C° 0 mm 1 m/S 560 mmHg 86%
    08:00 +15°C° 0.1 mm 1 m/S 561 mmHg 82%
    09:00 +18°C° 0.1 mm 1 m/S 562 mmHg 77%
    10:00 +19°C° 0.1 mm 1 m/S 563 mmHg 73%
    11:00 +19°C° 0.9 mm 1 m/S 562 mmHg 76%
    12:00 +19°C° 0.9 mm 1 m/S 561 mmHg 78%
    13:00 +19°C° 0.9 mm 1 m/S 560 mmHg 80%
    14:00 +19°C° 0.8 mm 1 m/S 560 mmHg 81%
    15:00 +18°C° 0.8 mm 1 m/S 560 mmHg 82%
    16:00 +18°C° 0.8 mm 1 m/S 559 mmHg 83%
    17:00 +16°C° 0.6 mm 1 m/S 559 mmHg 86%
    18:00 +15°C° 0.6 mm 1 m/S 559 mmHg 88%
    19:00 +13°C° 0.6 mm 1 m/S 559 mmHg 91%
    20:00 +13°C° 0.3 mm 1 m/S 559 mmHg 90%
    21:00 +13°C° 0.3 mm 2 m/S 559 mmHg 90%
    22:00 +12°C° 0.3 mm 2 m/S 559 mmHg 89%
    23:00 +12°C° 0 mm 2 m/S 559 mmHg 88%
    Mehr zeigen